Content
SEND FEEDBACK

Daily
Averages
Monthly
Summary
United States of America

CHELSEA, MICHIGAN


Home > North America > United States > Michigan
Elevation: 900 feet     Latitude: 42 19N     Longitude: 084 01W

WEATHER
 
SELECT A DAY
Number of Records: 203,193;   Date Range: 1/1/95 - 7/23/14
 
SHARE

PRINT THIS DATA

[ ← Previous Day ]
WEATHER ALMANAC - APRIL 18, 2013
[ Next Day → ]
[ °C ]   °F
Weather ElementAverageHighLow
Temperature61 °F77 °F (11:53 am)44.6 °F (1:01 am)
Dewpoint56.8 °F64.4 °F (11:30 am)42.1 °F (12:53 am)
Humidity86.7 %97 % (11:53 pm)60 % (1:53 pm)
Barometer29.70 in30.00 in (12:53 am)29.57 in (11:53 pm)
Wind Speed12.5 mph27.6 mph (2:20 pm)
Wind Gust47.2 mph (1:53 pm)
Weather ElementAverage
Visibility7.9 mi
Wind DirectionSSW (192.8 °)

Weather ElementTotal
Precipitation2.54 in
Heating Degree Days4.2 (Base 65)
Growing Degree Days10.8 (Base 50)
Averaged from 47 records on April 18, 2013
WEATHER CONDITIONS BREAKOUT
WIND DIRECTION BREAKOUT
WEATHER BY HOUR - APRIL 18, 2013
[ °C ]   °F
Local TimeTemperatureDewpointHumidityBarometerVisibilityWind DirectionWind SpeedGust SpeedPrecipitationEventsConditions
12:53 AM45.0 °F42.1 °F90 %30.00 in10.0 miEast (100°)10.4 mph20.7 mph0.09 inOvercast
1:01 AM44.6 °F42.8 °F93 %30.00 in10.0 miESE (110°)11.5 mph19.6 mphMostly Cloudy
1:53 AM45.0 °F42.1 °F90 %29.96 in10.0 miESE (110°)10.4 mphOvercast
2:53 AM45.0 °F43.0 °F93 %29.92 in10.0 miESE (120°)6.9 mphScattered Clouds
3:53 AM46.0 °F42.1 °F86 %29.88 in10.0 miESE (110°)6.9 mphMostly Cloudy
4:53 AM46.9 °F43.0 °F86 %29.85 in10.0 miESE (110°)4.6 mphOvercast
5:53 AM46.9 °F44.1 °F90 %29.82 in10.0 miSSE (150°)5.8 mphMostly Cloudy
6:53 AM46.9 °F45.0 °F93 %29.80 in10.0 miSSE (150°)4.6 mphClear
7:53 AM50.0 °F48.0 °F93 %29.77 in7.0 miSouth (170°)4.6 mphPartly Cloudy
8:53 AM57.0 °F53.1 °F87 %29.75 in10.0 miSSW (200°)8.1 mphClear
9:53 AM66.9 °F60.1 °F79 %29.72 in10.0 miSouth (190°)16.1 mph24.2 mphClear
10:53 AM72.0 °F63.0 °F73 %29.69 in10.0 miSSW (200°)17.3 mph24.2 mphScattered Clouds
11:30 AM75.2 °F64.4 °F69 %29.67 in10.0 miSSW (210°)21.9 mph31.1 mphMostly Cloudy
11:50 AM75.2 °F64.4 °F69 %29.67 in10.0 miSSW (210°)20.7 mph34.5 mphMostly Cloudy
11:53 AM77.0 °F64.0 °F64 %29.66 in10.0 miSSW (200°)21.9 mph34.5 mphMostly Cloudy
12:53 PM75.9 °F63.0 °F64 %29.64 in10.0 miSouth (190°)19.6 mph31.1 mphOvercast
1:53 PM77.0 °F62.1 °F60 %29.59 in10.0 miSSW (200°)26.5 mph47.2 mphScattered Clouds
2:20 PM68.0 °F60.8 °F78 %29.64 in1.2 miWSW (240°)27.6 mph44.9 mph0.07 inRainHeavy Rain
2:27 PM66.2 °F60.8 °F83 %29.65 in1.5 miWSW (240°)20.7 mph40.3 mph0.10 inRainLight Rain
2:29 PM64.4 °F60.8 °F88 %29.66 in2.5 miWSW (240°)21.9 mph31.1 mph0.13 inRain-ThunderstormThunderstorms and Rain
2:33 PM64.4 °F60.8 °F88 %29.65 in1.2 miSW (230°)19.6 mph28.8 mph0.22 inRain-ThunderstormHeavy Thunderstorms and Rain
2:42 PM64.4 °F60.8 °F88 %29.64 in2.0 miSW (230°)13.8 mph26.5 mph0.25 inRain-ThunderstormLight Thunderstorms and Rain
2:45 PM64.4 °F60.8 °F88 %29.64 in5.0 miSW (230°)12.7 mph0.26 inRain-ThunderstormLight Thunderstorms and Rain
2:53 PM64.0 °F60.1 °F87 %29.65 in7.0 miSW (230°)11.5 mph20.7 mph0.27 inRain-ThunderstormLight Thunderstorms and Rain
3:14 PM64.4 °F60.8 °F88 %29.64 in3.0 miWSW (240°)16.1 mph23.0 mph0.04 inRainLight Rain
3:29 PM64.4 °F60.8 °F88 %29.64 in10.0 miSW (220°)13.8 mph21.9 mph0.04 inRain-ThunderstormLight Rain
3:44 PM64.4 °F60.8 °F88 %29.64 in10.0 miSW (220°)12.7 mph21.9 mph0.05 inOvercast
3:53 PM64.0 °F59.0 °F84 %29.65 in10.0 miSW (230°)13.8 mph0.05 inRainLight Rain
4:53 PM64.0 °F59.0 °F84 %29.67 in10.0 miSW (220°)11.5 mph0.00 inOvercast
5:07 PM62.6 °F60.8 °F94 %29.67 in2.5 miSW (230°)9.2 mph0.06 inRainLight Rain
5:15 PM62.6 °F59.0 °F88 %29.65 in7.0 miSW (230°)10.4 mph0.07 inRainLight Rain
5:29 PM62.6 °F60.8 °F94 %29.65 in2.0 miSSW (210°)9.2 mph0.12 inRainLight Rain
5:38 PM62.6 °F59.0 °F88 %29.66 in6.0 miSW (220°)11.5 mph0.14 inRainLight Rain
5:53 PM62.1 °F59.0 °F90 %29.66 in3.0 miSSW (200°)9.2 mph0.19 inRainRain
6:02 PM60.8 °F59.0 °F94 %29.65 in5.0 miSSW (200°)8.1 mph0.02 inRain-ThunderstormThunderstorms and Rain
6:17 PM60.8 °F59.0 °F94 %29.65 in8.0 miSSW (200°)6.9 mph0.04 inRainLight Rain
6:26 PM60.8 °F59.0 °F94 %29.65 in9.0 miSSW (200°)9.2 mph0.05 inRainLight Rain
6:35 PM60.8 °F59.0 °F94 %29.65 in9.0 miSSW (210°)9.2 mph0.05 inRainLight Rain
6:53 PM61.0 °F59.0 °F93 %29.66 in10.0 miSSW (200°)10.4 mph0.06 inRainLight Rain
7:41 PM60.8 °F59.0 °F94 %29.65 in10.0 miSSW (210°)10.4 mph0.01 inRainLight Rain
7:51 PM60.8 °F59.0 °F94 %29.66 in10.0 miSSW (210°)16.1 mph24.2 mph0.02 inRainLight Rain
7:53 PM61.0 °F59.0 °F93 %29.67 in10.0 miSSW (210°)11.5 mph24.2 mph0.02 inRainLight Rain
8:13 PM60.8 °F57.2 °F88 %29.66 in10.0 miSW (220°)11.5 mph0.00 inRainLight Rain
8:53 PM60.1 °F57.0 °F90 %29.64 in10.0 miSSW (210°)9.2 mph0.01 inOvercast
9:53 PM60.1 °F57.0 °F90 %29.67 in10.0 miSSW (200°)10.4 mph0.03 inRainLight Rain
10:53 PM59.0 °F57.0 °F93 %29.65 in9.0 miSSW (200°)11.5 mph0.04 inRainLight Rain
11:53 PM57.9 °F57.0 °F97 %29.57 in10.0 miCalm0.04 inOvercast
Hourly data recorded from KARB, located miles away from Chelsea, Michigan







STORIES FROM OUR PARTNERS